Дата Пункты Температура Давл., мм. Влажн., % Ветер Погодные явления
Воздуха Воды Направл. Скорость
30.03.18 06:00 Одесса 5.0 4.0 760 96 Ю 4 18 ЧАСОВ
30.03.18 03:00 Одесса 5.0 4.0 761 98 Ю 2 15 ЧАСОВ
30.03.18 12:00 Одесса 4.0 4.0 762 100 Ю-В 2 12 ЧАСОВ
30.03.18 09:00 Одесса 3.0 4.0 761 100 Ю-В 3 09 ЧАСОВ
30.03.18 06:00 Одесса 3.0 3.0 760 97 Ю-В 2 06 ЧАСОВ
30.03.18 03:00 Одесса 3.0 3.0 759 94 В 4 03 ЧАСА
29.03.18 09:00 Одесса 4.0 4.0 758 88 С-В 4 21 ЧАС
29.03.18 06:00 Одесса 7.0 4.0 756 80 С-В 3 18 ЧАСОВ
29.03.18 03:00 Одесса 8.0 4.0 756 77 В 1 15 ЧАСОВ
29.03.18 12:00 Одесса 7.0 3.0 756 80 С-В 4 12 ЧАСОВ
29.03.18 09:00 Одесса 6.0 3.0 755 83 С 2 09 ЧАСОВ
29.03.18 06:00 Одесса 3.0 3.0 755 97 С 1 06 ЧАСОВ
29.03.18 03:00 Одесса 4.0 3.0 755 94 С 0 03 ЧАСА
28.03.18 09:00 Одесса 5.0 3.0 0 94 Ю 1 21 ЧАС
28.03.18 06:00 Одесса 5.0 3.0 755 96 Ю 2 18 ЧАСОВ
28.03.18 03:00 Одесса 5.0 3.0 756 95 Ю-В 2 15 ЧАСОВ
28.03.18 12:00 Одесса 5.0 3.0 757 82 С 0 12 ЧАСОВ
28.03.18 09:00 Одесса 5.0 3.0 757 80 С 0 09 ЧАСОВ
28.03.18 06:00 Одесса 4.0 3.0 756 85 З 1 06 ЧАСОВ
28.03.18 03:00 Одесса 4.0 3.0 756 85 З 2 03 ЧАСА
Количество строк
1 2 3 4 5 6 7 8 9 10
Page 10 of 354